NEMO-HD

Last updated on Mon Sep 21 2026 00:02:46 GMT+0000 (Coordinated Universal Time)

1 46277U 20061F 26263.63229031 .00007405 00000+0 15207-3 0 9993 2 46277 97.1819 324.6821 0002424 81.0476 279.1049 15.46296788336726
UTC large
Height (km)
Speed (km/s)
/
Latitude / Longitude
Inclination (degrees)
Orbital Period (minutes)
Azimuth
Elevation
Range (km)
Doppler Factor

Next 0 passes for location: London (51.5072 / 0.1276)

No passes found over London.
NEMO-HD